HAWK-5A (52757 NORAD) Tracking and Keplerian Element Data

This shows tracking and keplerian element data for the satellite.

Feedback or suggestion? Click here.




ElementValue
Catalog52757
NameHAWK-5A
Epoch Orbit712
Epoch Day192.85311383
Epoch Year2022
RAAN307.1929
Inclination97.5212
Eccentricity0.0012531
Argument of Perigee79.3894
Mean Anonmoly280.8748
Mean Motion15.12616395
Decay Rate3.098E-05
L11 52757U 22057AB 22192.85311383 .00003098 00000+0 18079-3 0 9997
L22 52757 97.5212 307.1929 0012531 79.3894 280.8748 15.12616395 7123

Live tracking and technical data element details for HAWK-5A (NORAD 52757). HAWK-5A can be tracked NOW for your location showing map with azimuth and elevation plus other details from your city location.

Track the satellite on the map from your city or location and see movement details for azimuth, elevation, latitude, longitude, range, height, and movement on the map or in text.







IsCatalogInMostPopularTable: catalog: 52757, numindb: 4
Update: records affected: 1



GetName: 52757 HAWK-5A

Hit Count: updated at: Sat, 13 Aug 2022 23:55:04 GMT